Weather History for KFVE - March, 2014

Change the Weather History Date:

Monday, March 3, 2014

  Actual Average Record
Temperature  
Mean Temperature -3 °F 19 °F  
Max Temperature 4 °F 27 °F 43 °F (2002)
Min Temperature -11 °F 10 °F -11 °F (2001)
Degree Days  
Heating Degree Days 68    
Month to date heating degree days 188  
Since 1 July heating degree days 7122  
Cooling Degree Days 0    
Month to date cooling degree days 0  
Year to date cooling degree days 0  
Moisture  
Dew Point -14 °F    
Average Humidity 66    
Maximum Humidity 84    
Minimum Humidity 41    
Precipitation  
Precipitation T in 0.04 in 0.08 in (2002)
Month to date precipitation T 0.10  
Year to date precipitation 2.92 2.67  
Sea Level Pressure  
Sea Level Pressure 30.00 in    
Wind  
Wind Speed 9 mph (WNW)    
Max Wind Speed 23 mph    
Max Gust Speed 30 mph    
Visibility 10 miles    
Events      
T = Trace of Precipitation, MM = Missing Value Source: NWS Daily Summary

Daily Weather History Graph

Daily Weather History Graph

Search for Another Location

Airport or City:

Trip Planner

Search our weather history database for the weather conditions in past years. The results will help you decide how hot, cold, wet, or windy it might be!

Date:

Astronomy

Mar. 03, 2014 Rise Set
Actual Time 6:09 AM EST 5:21 PM EST
Civil Twilight 5:39 AM EST 5:52 PM EST
Nautical Twilight 5:03 AM EST 6:27 PM EST
Astronomical Twilight 4:28 AM EST 7:03 PM EST
Moon 7:03 AM EST (3/3) 8:35 PM EST (3/3)
Length of Visible Light 12h 12m
Length of Day
11h 11m
Waxing Crescent, 8% of the Moon is Illuminated
Mar 3
Waxing Crescent
Mar 8
First Quarter
Mar 16
Full
Mar 23
Last Quarter
Mar 30
New

Hourly Weather History & Observations

Time (EST) Temp. Windchill Dew Point Humidity Pressure Visibility Wind Dir Wind Speed Gust Speed Precip Events Conditions
12:53 AM -5.1 °F -15.8 °F -13.0 °F 69% 29.98 in 10.0 mi WNW 4.6 mph - N/A   Overcast
1:53 AM -5.1 °F -17.6 °F -13.0 °F 69% 29.96 in 10.0 mi WNW 5.8 mph - N/A   Overcast
2:53 AM -7.1 °F -18.1 °F -11.9 °F 79% 29.96 in 10.0 mi West 4.6 mph - N/A   Overcast
3:49 AM -7.6 °F - -13.0 °F 77% 29.88 in 10.0 mi Calm Calm - N/A   Overcast
3:53 AM -7.1 °F -15.9 °F -13.0 °F 75% 29.96 in 10.0 mi West 3.5 mph - N/A   Overcast
4:00 AM -8.0 °F - -13.0 °F 79% 29.88 in 10.0 mi Calm Calm - N/A   Overcast
4:50 AM -7.6 °F -20.6 °F -11.2 °F 84% 29.89 in 10.0 mi West 5.8 mph - N/A   Overcast
4:53 AM -9.0 °F -20.4 °F -14.1 °F 79% 29.96 in 10.0 mi West 4.6 mph - N/A   Mostly Cloudy
5:04 AM -11.0 °F -24.6 °F -15.0 °F 83% 29.88 in 10.0 mi WSW 5.8 mph - N/A   Scattered Clouds
5:53 AM -8.0 °F -16.9 °F -13.0 °F 79% 29.96 in 10.0 mi West 3.5 mph - N/A   Clear
6:53 AM -9.9 °F -24.9 °F -14.1 °F 82% 29.95 in 10.0 mi WSW 6.9 mph - N/A   Mostly Cloudy
7:14 AM -9.0 °F -25.2 °F -14.1 °F 79% 29.87 in 10.0 mi WSW 8.1 mph - N/A   Mostly Cloudy
7:53 AM -9.0 °F -23.8 °F -13.0 °F 83% 29.96 in 10.0 mi West 6.9 mph - N/A   Mostly Cloudy
8:00 AM -8.0 °F -22.5 °F -13.0 °F 79% 29.88 in 10.0 mi WNW 6.9 mph - N/A   Scattered Clouds
8:29 AM -5.1 °F -22.5 °F -11.0 °F 76% 29.89 in 9.0 mi West 10.4 mph - N/A   Mostly Cloudy
8:53 AM -2.9 °F -22.4 °F -9.0 °F 75% 29.97 in 6.0 mi West 13.8 mph - N/A   Haze
9:16 AM -0.9 °F -17.4 °F -9.0 °F 69% 29.90 in 10.0 mi West 10.4 mph - N/A   Scattered Clouds
9:53 AM 1.9 °F -17.5 °F -8.0 °F 63% 29.98 in 10.0 mi WNW 16.1 mph - N/A   Clear
10:53 AM 1.9 °F -18.1 °F -7.1 °F 66% 29.98 in 9.0 mi NW 17.3 mph 25.3 mph N/A   Overcast
11:10 AM 1.9 °F -18.7 °F -8.0 °F 63% 29.91 in 8.0 mi NNW 18.4 mph - N/A   Overcast
11:21 AM 3.0 °F -17.3 °F -9.0 °F 57% 29.90 in 10.0 mi WNW 18.4 mph 23.0 mph N/A   Overcast
11:53 AM 1.9 °F -19.2 °F -9.0 °F 60% 29.99 in 10.0 mi NW 19.6 mph - N/A   Overcast
12:53 PM 1.9 °F -16.9 °F -11.0 °F 55% 30.01 in 10.0 mi NNW 15.0 mph 24.2 mph 0.00 in   Mostly Cloudy
1:53 PM 1.9 °F -17.5 °F -16.1 °F 43% 30.01 in 10.0 mi NW 16.1 mph 27.6 mph N/A   Clear
2:53 PM 1.0 °F -19.3 °F -17.0 °F 43% 30.04 in 10.0 mi WNW 17.3 mph 24.2 mph N/A   Clear
3:53 PM -0.0 °F -20.1 °F -18.9 °F 41% 30.07 in 10.0 mi NW 16.1 mph 21.9 mph N/A   Clear
4:53 PM -0.9 °F -17.4 °F -18.0 °F 44% 30.10 in 10.0 mi WNW 10.4 mph - N/A   Clear
5:53 PM -4.0 °F - -18.9 °F 49% 30.13 in 10.0 mi Calm Calm - N/A   Clear
6:53 PM -6.0 °F -22.6 °F -18.9 °F 54% 30.15 in 10.0 mi NNW 9.2 mph - N/A   Clear
7:53 PM -7.1 °F -23.9 °F -18.0 °F 59% 30.15 in 10.0 mi NW 9.2 mph - N/A   Partly Cloudy
8:08 PM -7.1 °F -22.8 °F -18.0 °F 59% 30.06 in 10.0 mi NW 8.1 mph - N/A   Mostly Cloudy
8:29 PM -7.1 °F -19.9 °F -18.0 °F 59% 30.07 in 10.0 mi NW 5.8 mph - N/A   Scattered Clouds
8:53 PM -8.0 °F -19.2 °F -18.9 °F 59% 30.16 in 10.0 mi NW 4.6 mph - N/A   Clear
9:53 PM -9.0 °F -22.3 °F -18.9 °F 62% 30.17 in 10.0 mi NNW 5.8 mph - N/A   Clear
10:53 PM -7.1 °F - -16.1 °F 65% 30.17 in 6.0 mi Calm Calm - N/A   Haze
11:15 PM -9.0 °F - -17.0 °F 68% 30.09 in 10.0 mi Calm Calm - N/A   Scattered Clouds
11:53 PM -8.0 °F - -15.0 °F 71% 30.17 in 10.0 mi Calm Calm - N/A   Mostly Cloudy